contact:dominique.lefevre@mio.osupytheas.fr, maurice.libes@osupytheas.fr, didier.mallarino@osupytheas.fr
Project:EMSO http://www.emso-fr.org/EMSO-France
Depth: 2436.0 m
Title:EMSO Ligure Ouest : Data MII capteur MICROCAT
DateTime_Computer,Latitude,Longitude,Temperature,Conductivity,Pressure,DateTime_Instrument
DateTime_Computer,Latitude,Longitude,degC,S m-1,dbar,DateTime_Instrument
2022-08-28T00:01:38Z,42.805,6.029,13.3006,4.60049,2470.6,2022-8-28T02:03:29Z
2022-08-28T00:04:42Z,42.805,6.029,13.3005,4.60050,2470.6,2022-8-28T02:06:32Z
2022-08-28T00:07:45Z,42.805,6.029,13.3008,4.60035,2470.591,2022-8-28T02:09:35Z
2022-08-28T00:10:48Z,42.805,6.029,13.3006,4.60055,2470.614,2022-8-28T02:12:38Z
2022-08-28T00:13:51Z,42.805,6.029,13.3006,4.60054,2470.624,2022-8-28T02:15:41Z
2022-08-28T00:16:54Z,42.805,6.029,13.3005,4.60058,2470.591,2022-8-28T02:18:45Z
2022-08-28T00:19:57Z,42.805,6.029,13.3008,4.60060,2470.577,2022-8-28T02:21:48Z
2022-08-28T00:23:00Z,42.805,6.029,13.3006,4.60055,2470.614,2022-8-28T02:24:51Z
2022-08-28T00:26:03Z,42.805,6.029,13.3011,4.60057,2470.577,2022-8-28T02:27:54Z
2022-08-28T00:29:07Z,42.805,6.029,13.3010,4.60055,2470.6,2022-8-28T02:30:57Z
2022-08-28T00:32:10Z,42.805,6.029,13.3010,4.60053,2470.553,2022-8-28T02:34:00Z
2022-08-28T00:35:13Z,42.805,6.029,13.3006,4.60059,2470.567,2022-8-28T02:37:03Z
2022-08-28T00:38:16Z,42.805,6.029,13.3003,4.60054,2470.577,2022-8-28T02:40:06Z
2022-08-28T00:41:19Z,42.805,6.029,13.3007,4.60052,2470.553,2022-8-28T02:43:10Z
2022-08-28T00:44:22Z,42.805,6.029,13.3006,4.60054,2470.577,2022-8-28T02:46:13Z
2022-08-28T00:47:25Z,42.805,6.029,13.3006,4.60057,2470.563,2022-8-28T02:49:16Z
2022-08-28T00:50:28Z,42.805,6.029,13.3005,4.60053,2470.53,2022-8-28T02:52:19Z
2022-08-28T00:53:31Z,42.805,6.029,13.3006,4.60060,2470.553,2022-8-28T02:55:22Z
2022-08-28T00:56:35Z,42.805,6.029,13.3009,4.60055,2470.591,2022-8-28T02:58:25Z
2022-08-28T00:59:38Z,42.805,6.029,13.3010,4.60075,2470.53,2022-8-28T03:01:28Z
2022-08-28T01:02:41Z,42.805,6.029,13.3008,4.60057,2470.6,2022-8-28T03:04:31Z
2022-08-28T01:05:44Z,42.805,6.029,13.3004,4.60059,2470.553,2022-8-28T03:07:35Z
2022-08-28T01:08:47Z,42.805,6.029,13.3008,4.60052,2470.553,2022-8-28T03:10:38Z
2022-08-28T01:11:50Z,42.805,6.029,13.3007,4.60052,2470.577,2022-8-28T03:13:41Z
2022-08-28T01:14:53Z,42.805,6.029,13.3008,4.60059,2470.553,2022-8-28T03:16:44Z
2022-08-28T01:17:56Z,42.805,6.029,13.3006,4.60053,2470.567,2022-8-28T03:19:47Z
2022-08-28T01:21:00Z,42.805,6.029,13.3007,4.60051,2470.553,2022-8-28T03:22:50Z
2022-08-28T01:24:03Z,42.805,6.029,13.3007,4.60067,2470.553,2022-8-28T03:25:53Z
2022-08-28T01:27:06Z,42.805,6.029,13.3006,4.60055,2470.553,2022-8-28T03:28:56Z
2022-08-28T01:30:09Z,42.805,6.029,13.3010,4.60059,2470.553,2022-8-28T03:31:59Z
2022-08-28T01:33:12Z,42.805,6.029,13.3011,4.60057,2470.544,2022-8-28T03:35:03Z
2022-08-28T01:36:15Z,42.805,6.029,13.3006,4.60065,2470.553,2022-8-28T03:38:06Z
2022-08-28T01:39:18Z,42.805,6.029,13.3005,4.60067,2470.553,2022-8-28T03:41:09Z
2022-08-28T01:42:21Z,42.805,6.029,13.3010,4.60069,2470.544,2022-8-28T03:44:12Z
2022-08-28T01:45:25Z,42.805,6.029,13.3008,4.60064,2470.507,2022-8-28T03:47:15Z
2022-08-28T01:48:28Z,42.805,6.029,13.3004,4.60067,2470.553,2022-8-28T03:50:18Z
2022-08-28T01:51:31Z,42.805,6.029,13.3008,4.60058,2470.553,2022-8-28T03:53:21Z
2022-08-28T01:54:34Z,42.805,6.029,13.3009,4.60057,2470.553,2022-8-28T03:56:24Z
2022-08-28T01:57:37Z,42.805,6.029,13.3005,4.60064,2470.53,2022-8-28T03:59:28Z
2022-08-28T02:00:40Z,42.805,6.029,13.3009,4.60057,2470.53,2022-8-28T04:02:31Z
2022-08-28T02:03:43Z,42.805,6.029,13.3010,4.60069,2470.53,2022-8-28T04:05:34Z
2022-08-28T02:06:46Z,42.805,6.029,13.3005,4.60065,2470.53,2022-8-28T04:08:37Z
2022-08-28T02:09:50Z,42.805,6.029,13.3006,4.60065,2470.553,2022-8-28T04:11:40Z
2022-08-28T02:12:53Z,42.805,6.029,13.3006,4.60062,2470.544,2022-8-28T04:14:43Z
2022-08-28T02:15:56Z,42.805,6.029,13.3006,4.60063,2470.544,2022-8-28T04:17:46Z
2022-08-28T02:18:59Z,42.805,6.029,13.3007,4.60070,2470.544,2022-8-28T04:20:49Z
2022-08-28T02:22:02Z,42.805,6.029,13.3009,4.60060,2470.53,2022-8-28T04:23:53Z
2022-08-28T02:25:05Z,42.805,6.029,13.3006,4.60057,2470.53,2022-8-28T04:26:56Z
2022-08-28T02:28:08Z,42.805,6.029,13.3004,4.60059,2470.544,2022-8-28T04:29:59Z
2022-08-28T02:31:11Z,42.805,6.029,13.3005,4.60063,2470.53,2022-8-28T04:33:02Z
2022-08-28T02:34:14Z,42.805,6.029,13.3007,4.60069,2470.553,2022-8-28T04:36:05Z
2022-08-28T02:37:18Z,42.805,6.029,13.3005,4.60069,2470.53,2022-8-28T04:39:08Z
2022-08-28T02:40:21Z,42.805,6.029,13.3010,4.60064,2470.507,2022-8-28T04:42:11Z
2022-08-28T02:43:24Z,42.805,6.029,13.3006,4.60064,2470.52,2022-8-28T04:45:14Z
2022-08-28T02:46:27Z,42.805,6.029,13.3007,4.60067,2470.553,2022-8-28T04:48:18Z
2022-08-28T02:49:30Z,42.805,6.029,13.3007,4.60076,2470.544,2022-8-28T04:51:21Z
2022-08-28T02:52:33Z,42.805,6.029,13.3010,4.60069,2470.52,2022-8-28T04:54:24Z
2022-08-28T02:55:36Z,42.805,6.029,13.3007,4.60072,2470.544,2022-8-28T04:57:27Z
2022-08-28T02:58:39Z,42.805,6.029,13.3007,4.60063,2470.52,2022-8-28T05:00:30Z
2022-08-28T03:01:43Z,42.805,6.029,13.3006,4.60068,2470.53,2022-8-28T05:03:33Z
2022-08-28T03:04:46Z,42.805,6.029,13.3009,4.60073,2470.553,2022-8-28T05:06:36Z
2022-08-28T03:07:49Z,42.805,6.029,13.3004,4.60062,2470.53,2022-8-28T05:09:39Z
2022-08-28T03:10:52Z,42.805,6.029,13.3009,4.60067,2470.53,2022-8-28T05:12:43Z
2022-08-28T03:13:55Z,42.805,6.029,13.3004,4.60073,2470.507,2022-8-28T05:15:46Z
2022-08-28T03:16:58Z,42.805,6.029,13.3007,4.60065,2470.567,2022-8-28T05:18:49Z
2022-08-28T03:20:01Z,42.805,6.029,13.3007,4.60074,2470.53,2022-8-28T05:21:52Z
2022-08-28T03:23:04Z,42.805,6.029,13.3008,4.60067,2470.507,2022-8-28T05:24:55Z
2022-08-28T03:26:08Z,42.805,6.029,13.3008,4.60060,2470.507,2022-8-28T05:27:58Z
2022-08-28T03:29:11Z,42.805,6.029,13.3009,4.60067,2470.544,2022-8-28T05:31:01Z
2022-08-28T03:32:14Z,42.805,6.029,13.3009,4.60062,2470.567,2022-8-28T05:34:04Z
2022-08-28T03:35:17Z,42.805,6.029,13.3005,4.60069,2470.553,2022-8-28T05:37:07Z
2022-08-28T03:38:20Z,42.805,6.029,13.3005,4.60069,2470.53,2022-8-28T05:40:11Z
2022-08-28T03:41:23Z,42.805,6.029,13.3007,4.60072,2470.567,2022-8-28T05:43:14Z
2022-08-28T03:44:26Z,42.805,6.029,13.3006,4.60077,2470.553,2022-8-28T05:46:17Z
2022-08-28T03:47:29Z,42.805,6.029,13.3006,4.60084,2470.52,2022-8-28T05:49:20Z
2022-08-28T03:50:33Z,42.805,6.029,13.3006,4.60108,2470.53,2022-8-28T05:52:23Z
2022-08-28T03:53:36Z,42.805,6.029,13.3009,4.60149,2470.553,2022-8-28T05:55:26Z
2022-08-28T03:56:39Z,42.805,6.029,13.3010,4.60142,2470.553,2022-8-28T05:58:29Z
2022-08-28T03:59:42Z,42.805,6.029,13.3006,4.60139,2470.53,2022-8-28T06:01:32Z
2022-08-28T04:02:45Z,42.805,6.029,13.3013,4.60120,2470.567,2022-8-28T06:04:36Z
2022-08-28T04:05:48Z,42.805,6.029,13.3006,4.60158,2470.567,2022-8-28T06:07:39Z
2022-08-28T04:08:51Z,42.805,6.029,13.3013,4.60128,2470.544,2022-8-28T06:10:42Z
2022-08-28T04:11:54Z,42.805,6.029,13.3024,4.60121,2470.553,2022-8-28T06:13:45Z
2022-08-28T04:14:57Z,42.805,6.029,13.3054,4.60119,2470.553,2022-8-28T06:16:48Z
2022-08-28T04:18:01Z,42.805,6.029,13.3062,4.60096,2470.553,2022-8-28T06:19:51Z
2022-08-28T04:21:04Z,42.805,6.029,13.3062,4.60094,2470.591,2022-8-28T06:22:54Z
2022-08-28T04:24:07Z,42.805,6.029,13.3077,4.60084,2470.591,2022-8-28T06:25:57Z
2022-08-28T04:27:10Z,42.805,6.029,13.3078,4.60097,2470.591,2022-8-28T06:29:01Z
2022-08-28T04:30:13Z,42.805,6.029,13.3090,4.60072,2470.577,2022-8-28T06:32:04Z
2022-08-28T04:33:16Z,42.805,6.029,13.3093,4.60084,2470.577,2022-8-28T06:35:07Z
2022-08-28T04:36:19Z,42.805,6.029,13.3085,4.60081,2470.567,2022-8-28T06:38:10Z
2022-08-28T04:39:22Z,42.805,6.029,13.3082,4.60087,2470.553,2022-8-28T06:41:13Z
2022-08-28T04:42:26Z,42.805,6.029,13.3075,4.60075,2470.591,2022-8-28T06:44:16Z
2022-08-28T04:45:29Z,42.805,6.029,13.3082,4.60094,2470.567,2022-8-28T06:47:19Z
2022-08-28T04:48:32Z,42.805,6.029,13.3086,4.60086,2470.614,2022-8-28T06:50:22Z
2022-08-28T04:51:35Z,42.805,6.029,13.3080,4.60089,2470.577,2022-8-28T06:53:26Z
2022-08-28T04:54:38Z,42.805,6.029,13.3065,4.60090,2470.591,2022-8-28T06:56:29Z
2022-08-28T04:57:41Z,42.805,6.029,13.3073,4.60107,2470.591,2022-8-28T06:59:32Z
2022-08-28T05:00:44Z,42.805,6.029,13.3078,4.60088,2470.577,2022-8-28T07:02:35Z
2022-08-28T05:03:47Z,42.805,6.029,13.3085,4.60089,2470.591,2022-8-28T07:05:38Z
2022-08-28T05:06:51Z,42.805,6.029,13.3075,4.60080,2470.6,2022-8-28T07:08:41Z
2022-08-28T05:09:54Z,42.805,6.029,13.3067,4.60079,2470.591,2022-8-28T07:11:44Z
2022-08-28T05:12:57Z,42.805,6.029,13.3077,4.60081,2470.6,2022-8-28T07:14:47Z
2022-08-28T05:16:00Z,42.805,6.029,13.3078,4.60077,2470.6,2022-8-28T07:17:50Z
2022-08-28T05:19:03Z,42.805,6.029,13.3085,4.60079,2470.637,2022-8-28T07:20:54Z
2022-08-28T05:22:06Z,42.805,6.029,13.3063,4.60079,2470.637,2022-8-28T07:23:57Z
2022-08-28T05:25:09Z,42.805,6.029,13.3077,4.60092,2470.614,2022-8-28T07:27:00Z
2022-08-28T05:28:12Z,42.805,6.029,13.3081,4.60092,2470.6,2022-8-28T07:30:03Z
2022-08-28T05:31:16Z,42.805,6.029,13.3081,4.60099,2470.614,2022-8-28T07:33:06Z
2022-08-28T05:34:19Z,42.805,6.029,13.3063,4.60082,2470.6,2022-8-28T07:36:09Z
2022-08-28T05:37:22Z,42.805,6.029,13.3069,4.60087,2470.624,2022-8-28T07:39:12Z
2022-08-28T05:40:25Z,42.805,6.029,13.3073,4.60091,2470.637,2022-8-28T07:42:15Z
2022-08-28T05:43:28Z,42.805,6.029,13.3070,4.60081,2470.6,2022-8-28T07:45:19Z
2022-08-28T05:46:31Z,42.805,6.029,13.3079,4.60087,2470.661,2022-8-28T07:48:22Z
2022-08-28T05:49:34Z,42.805,6.029,13.3072,4.60082,2470.614,2022-8-28T07:51:25Z
2022-08-28T05:52:37Z,42.805,6.029,13.3062,4.60087,2470.637,2022-8-28T07:54:28Z
2022-08-28T05:55:41Z,42.805,6.029,13.3053,4.60089,2470.637,2022-8-28T07:57:31Z
2022-08-28T05:58:44Z,42.805,6.029,13.3063,4.60075,2470.637,2022-8-28T08:00:34Z
2022-08-28T06:01:47Z,42.805,6.029,13.3066,4.60092,2470.646,2022-8-28T08:03:37Z
2022-08-28T06:04:50Z,42.805,6.029,13.3067,4.60099,2470.661,2022-8-28T08:06:40Z
2022-08-28T06:07:53Z,42.805,6.029,13.3073,4.60074,2470.684,2022-8-28T08:09:44Z
2022-08-28T06:10:56Z,42.805,6.029,13.3076,4.60089,2470.684,2022-8-28T08:12:47Z
2022-08-28T06:13:59Z,42.805,6.029,13.3078,4.60087,2470.67,2022-8-28T08:15:50Z
2022-08-28T06:17:02Z,42.805,6.029,13.3073,4.60079,2470.637,2022-8-28T08:18:53Z
2022-08-28T06:20:05Z,42.805,6.029,13.3070,4.60082,2470.624,2022-8-28T08:21:56Z
2022-08-28T06:23:09Z,42.805,6.029,13.3071,4.60081,2470.646,2022-8-28T08:24:59Z
2022-08-28T06:26:12Z,42.805,6.029,13.3076,4.60083,2470.637,2022-8-28T08:28:02Z
2022-08-28T06:29:15Z,42.805,6.029,13.3078,4.60100,2470.646,2022-8-28T08:31:05Z
2022-08-28T06:32:18Z,42.805,6.029,13.3071,4.60082,2470.67,2022-8-28T08:34:09Z
2022-08-28T06:35:21Z,42.805,6.029,13.3050,4.60098,2470.637,2022-8-28T08:37:12Z
2022-08-28T06:38:24Z,42.805,6.029,13.3056,4.60092,2470.646,2022-8-28T08:40:15Z
2022-08-28T06:41:27Z,42.805,6.029,13.3069,4.60084,2470.661,2022-8-28T08:43:18Z
2022-08-28T06:44:30Z,42.805,6.029,13.3029,4.60093,2470.684,2022-8-28T08:46:21Z
2022-08-28T06:47:34Z,42.805,6.029,13.3078,4.60104,2470.693,2022-8-28T08:49:24Z
2022-08-28T06:50:37Z,42.805,6.029,13.3073,4.60092,2470.707,2022-8-28T08:52:27Z
2022-08-28T06:53:40Z,42.805,6.029,13.3069,4.60109,2470.646,2022-8-28T08:55:30Z
2022-08-28T06:56:43Z,42.805,6.029,13.3055,4.60099,2470.646,2022-8-28T08:58:33Z
2022-08-28T06:59:46Z,42.805,6.029,13.3066,4.60089,2470.67,2022-8-28T09:01:37Z
2022-08-28T07:02:49Z,42.805,6.029,13.3030,4.60082,2470.624,2022-8-28T09:04:40Z
2022-08-28T07:05:52Z,42.805,6.029,13.3056,4.60087,2470.661,2022-8-28T09:07:43Z
2022-08-28T07:08:55Z,42.805,6.029,13.3056,4.60089,2470.707,2022-8-28T09:10:46Z
2022-08-28T07:11:59Z,42.805,6.029,13.3053,4.60089,2470.67,2022-8-28T09:13:49Z
2022-08-28T07:15:02Z,42.805,6.029,13.3049,4.60089,2470.67,2022-8-28T09:16:52Z
2022-08-28T07:18:05Z,42.805,6.029,13.3051,4.60094,2470.67,2022-8-28T09:19:55Z
2022-08-28T07:21:08Z,42.805,6.029,13.3054,4.60084,2470.661,2022-8-28T09:22:59Z
2022-08-28T07:24:11Z,42.805,6.029,13.3054,4.60084,2470.684,2022-8-28T09:26:02Z
2022-08-28T07:27:14Z,42.805,6.029,13.3061,4.60096,2470.624,2022-8-28T09:29:05Z
2022-08-28T07:30:17Z,42.805,6.029,13.3059,4.60087,2470.693,2022-8-28T09:32:08Z
2022-08-28T07:33:20Z,42.805,6.029,13.3063,4.60079,2470.646,2022-8-28T09:35:11Z
2022-08-28T07:36:24Z,42.805,6.029,13.3057,4.60079,2470.67,2022-8-28T09:38:14Z
2022-08-28T07:39:27Z,42.805,6.029,13.3057,4.60093,2470.67,2022-8-28T09:41:17Z
2022-08-28T07:42:30Z,42.805,6.029,13.3056,4.60092,2470.661,2022-8-28T09:44:20Z
2022-08-28T07:45:33Z,42.805,6.029,13.3059,4.60087,2470.646,2022-8-28T09:47:23Z
2022-08-28T07:48:36Z,42.805,6.029,13.3058,4.60077,2470.707,2022-8-28T09:50:27Z
2022-08-28T07:51:39Z,42.805,6.029,13.3053,4.60083,2470.661,2022-8-28T09:53:30Z
2022-08-28T07:54:42Z,42.805,6.029,13.3058,4.60082,2470.661,2022-8-28T09:56:33Z
2022-08-28T07:57:45Z,42.805,6.029,13.3078,4.60094,2470.693,2022-8-28T09:59:36Z
2022-08-28T08:00:49Z,42.805,6.029,13.3073,4.60081,2470.646,2022-8-28T10:02:39Z
2022-08-28T08:03:52Z,42.805,6.029,13.3078,4.60122,2470.684,2022-8-28T10:05:42Z
2022-08-28T08:06:55Z,42.805,6.029,13.3062,4.60086,2470.693,2022-8-28T10:08:45Z
2022-08-28T08:09:58Z,42.805,6.029,13.3055,4.60084,2470.684,2022-8-28T10:11:48Z
2022-08-28T08:13:01Z,42.805,6.029,13.3063,4.60088,2470.661,2022-8-28T10:14:52Z
2022-08-28T08:16:04Z,42.805,6.029,13.3071,4.60072,2470.67,2022-8-28T10:17:55Z
2022-08-28T08:19:07Z,42.805,6.029,13.3069,4.60080,2470.684,2022-8-28T10:20:58Z
2022-08-28T08:22:10Z,42.805,6.029,13.3057,4.60082,2470.684,2022-8-28T10:24:01Z
2022-08-28T08:25:14Z,42.805,6.029,13.3051,4.60074,2470.646,2022-8-28T10:27:04Z
2022-08-28T08:28:17Z,42.805,6.029,13.3061,4.60069,2470.684,2022-8-28T10:30:07Z
2022-08-28T08:31:20Z,42.805,6.029,13.3056,4.60074,2470.67,2022-8-28T10:33:10Z
2022-08-28T08:34:23Z,42.805,6.029,13.3064,4.60078,2470.661,2022-8-28T10:36:13Z
2022-08-28T08:37:26Z,42.805,6.029,13.3054,4.60085,2470.707,2022-8-28T10:39:17Z
2022-08-28T08:40:29Z,42.805,6.029,13.3061,4.60102,2470.646,2022-8-28T10:42:20Z
2022-08-28T08:43:32Z,42.805,6.029,13.3057,4.60073,2470.707,2022-8-28T10:45:23Z
2022-08-28T08:46:35Z,42.805,6.029,13.3055,4.60074,2470.646,2022-8-28T10:48:26Z
2022-08-28T08:49:39Z,42.805,6.029,13.3046,4.60079,2470.646,2022-8-28T10:51:29Z
2022-08-28T08:52:42Z,42.805,6.029,13.3057,4.60085,2470.684,2022-8-28T10:54:32Z
2022-08-28T08:55:45Z,42.805,6.029,13.3051,4.60086,2470.684,2022-8-28T10:57:35Z
2022-08-28T08:58:48Z,42.805,6.029,13.3049,4.60080,2470.637,2022-8-28T11:00:38Z
2022-08-28T09:01:51Z,42.805,6.029,13.3042,4.60082,2470.661,2022-8-28T11:03:42Z
2022-08-28T09:04:54Z,42.805,6.029,13.3049,4.60082,2470.661,2022-8-28T11:06:45Z
2022-08-28T09:07:57Z,42.805,6.029,13.3049,4.60081,2470.624,2022-8-28T11:09:48Z
2022-08-28T09:11:00Z,42.805,6.029,13.3054,4.60077,2470.67,2022-8-28T11:12:51Z
2022-08-28T09:14:04Z,42.805,6.029,13.3047,4.60072,2470.624,2022-8-28T11:15:54Z
2022-08-28T09:17:07Z,42.805,6.029,13.3055,4.60089,2470.661,2022-8-28T11:18:57Z
2022-08-28T09:20:10Z,42.805,6.029,13.3047,4.60080,2470.6,2022-8-28T11:22:00Z
2022-08-28T09:23:13Z,42.805,6.029,13.3057,4.60074,2470.646,2022-8-28T11:25:03Z
2022-08-28T09:26:16Z,42.805,6.029,13.3040,4.60079,2470.637,2022-8-28T11:28:07Z
2022-08-28T09:29:19Z,42.805,6.029,13.3056,4.60086,2470.646,2022-8-28T11:31:10Z
2022-08-28T09:32:22Z,42.805,6.029,13.3047,4.60081,2470.646,2022-8-28T11:34:13Z
2022-08-28T09:35:25Z,42.805,6.029,13.3047,4.60086,2470.646,2022-8-28T11:37:16Z
2022-08-28T09:38:29Z,42.805,6.029,13.3049,4.60100,2470.624,2022-8-28T11:40:19Z
2022-08-28T09:41:32Z,42.805,6.029,13.3049,4.60071,2470.624,2022-8-28T11:43:22Z
2022-08-28T09:44:35Z,42.805,6.029,13.3046,4.60075,2470.637,2022-8-28T11:46:25Z
2022-08-28T09:47:38Z,42.805,6.029,13.3045,4.60085,2470.624,2022-8-28T11:49:29Z
2022-08-28T09:50:41Z,42.805,6.029,13.3051,4.60076,2470.614,2022-8-28T11:52:32Z
2022-08-28T09:53:44Z,42.805,6.029,13.3048,4.60081,2470.646,2022-8-28T11:55:35Z
2022-08-28T09:56:47Z,42.805,6.029,13.3054,4.60083,2470.661,2022-8-28T11:58:38Z
2022-08-28T09:59:50Z,42.805,6.029,13.3051,4.60082,2470.624,2022-8-28T12:01:41Z
2022-08-28T10:02:54Z,42.805,6.029,13.3068,4.60083,2470.6,2022-8-28T12:04:44Z
2022-08-28T10:05:57Z,42.805,6.029,13.3054,4.60095,2470.614,2022-8-28T12:07:47Z
2022-08-28T10:09:00Z,42.805,6.029,13.3055,4.60082,2470.614,2022-8-28T12:10:50Z
2022-08-28T10:12:03Z,42.805,6.029,13.3040,4.60075,2470.624,2022-8-28T12:13:54Z
2022-08-28T10:15:06Z,42.805,6.029,13.3047,4.60080,2470.614,2022-8-28T12:16:57Z
2022-08-28T10:18:09Z,42.805,6.029,13.3051,4.60079,2470.637,2022-8-28T12:20:00Z
2022-08-28T10:21:12Z,42.805,6.029,13.3054,4.60081,2470.53,2022-8-28T12:23:03Z
2022-08-28T10:24:15Z,42.805,6.029,13.3065,4.60088,2470.6,2022-8-28T12:26:06Z
2022-08-28T10:27:19Z,42.805,6.029,13.3060,4.60072,2470.591,2022-8-28T12:29:09Z
2022-08-28T10:30:22Z,42.805,6.029,13.3048,4.60074,2470.591,2022-8-28T12:32:12Z
2022-08-28T10:33:25Z,42.805,6.029,13.3052,4.60077,2470.591,2022-8-28T12:35:15Z
2022-08-28T10:36:28Z,42.805,6.029,13.3048,4.60081,2470.591,2022-8-28T12:38:19Z
2022-08-28T10:39:31Z,42.805,6.029,13.3050,4.60072,2470.614,2022-8-28T12:41:22Z
2022-08-28T10:42:34Z,42.805,6.029,13.3043,4.60092,2470.577,2022-8-28T12:44:25Z
2022-08-28T10:45:37Z,42.805,6.029,13.3051,4.60079,2470.567,2022-8-28T12:47:28Z
2022-08-28T10:48:41Z,42.805,6.029,13.3054,4.60085,2470.577,2022-8-28T12:50:31Z
2022-08-28T10:51:44Z,42.805,6.029,13.3051,4.60081,2470.591,2022-8-28T12:53:34Z
2022-08-28T10:54:47Z,42.805,6.029,13.3053,4.60091,2470.591,2022-8-28T12:56:37Z
2022-08-28T10:57:50Z,42.805,6.029,13.3046,4.60084,2470.577,2022-8-28T12:59:40Z
2022-08-28T11:00:53Z,42.805,6.029,13.3048,4.60089,2470.6,2022-8-28T13:02:44Z
2022-08-28T11:03:56Z,42.805,6.029,13.3043,4.60083,2470.577,2022-8-28T13:05:47Z
2022-08-28T11:06:59Z,42.805,6.029,13.3048,4.60081,2470.567,2022-8-28T13:08:50Z
2022-08-28T11:10:02Z,42.805,6.029,13.3058,4.60078,2470.577,2022-8-28T13:11:53Z
2022-08-28T11:13:06Z,42.805,6.029,13.3052,4.60081,2470.567,2022-8-28T13:14:56Z
2022-08-28T11:16:09Z,42.805,6.029,13.3047,4.60086,2470.553,2022-8-28T13:17:59Z
2022-08-28T11:19:12Z,42.805,6.029,13.3056,4.60092,2470.539,2022-8-28T13:21:02Z
2022-08-28T11:22:15Z,42.805,6.029,13.3062,4.60103,2470.577,2022-8-28T13:24:05Z
2022-08-28T11:25:18Z,42.805,6.029,13.3066,4.60087,2470.553,2022-8-28T13:27:09Z
2022-08-28T11:28:21Z,42.805,6.029,13.3081,4.60099,2470.567,2022-8-28T13:30:12Z
2022-08-28T11:31:24Z,42.805,6.029,13.3030,4.60097,2470.553,2022-8-28T13:33:15Z
2022-08-28T11:34:27Z,42.805,6.029,13.3044,4.60081,2470.553,2022-8-28T13:36:18Z
2022-08-28T11:37:31Z,42.805,6.029,13.3010,4.60098,2470.567,2022-8-28T13:39:21Z
2022-08-28T11:40:34Z,42.805,6.029,13.3063,4.60112,2470.553,2022-8-28T13:42:24Z
2022-08-28T11:43:37Z,42.805,6.029,13.3065,4.60102,2470.577,2022-8-28T13:45:27Z
2022-08-28T11:46:40Z,42.805,6.029,13.3046,4.60074,2470.591,2022-8-28T13:48:30Z
2022-08-28T11:49:43Z,42.805,6.029,13.3069,4.60089,2470.567,2022-8-28T13:51:34Z
2022-08-28T11:52:46Z,42.805,6.029,13.3051,4.60076,2470.567,2022-8-28T13:54:37Z
2022-08-28T11:55:49Z,42.805,6.029,13.3058,4.60077,2470.567,2022-8-28T13:57:40Z
2022-08-28T11:58:52Z,42.805,6.029,13.3046,4.60083,2470.553,2022-8-28T14:00:43Z
2022-08-28T12:01:56Z,42.805,6.029,13.3076,4.60102,2470.553,2022-8-28T14:03:46Z
2022-08-28T12:04:59Z,42.805,6.029,13.3015,4.60081,2470.591,2022-8-28T14:06:49Z
2022-08-28T12:08:02Z,42.805,6.029,13.3029,4.60089,2470.544,2022-8-28T14:09:52Z
2022-08-28T12:11:05Z,42.805,6.029,13.3010,4.60083,2470.567,2022-8-28T14:12:55Z
2022-08-28T12:14:08Z,42.805,6.029,13.3011,4.60096,2470.53,2022-8-28T14:15:59Z
2022-08-28T12:17:11Z,42.805,6.029,13.3008,4.60082,2470.53,2022-8-28T14:19:02Z
2022-08-28T12:20:14Z,42.805,6.029,13.3009,4.60089,2470.507,2022-8-28T14:22:05Z
2022-08-28T12:23:17Z,42.805,6.029,13.3007,4.60094,2470.553,2022-8-28T14:25:08Z
2022-08-28T12:26:21Z,42.805,6.029,13.3009,4.60098,2470.483,2022-8-28T14:28:11Z
2022-08-28T12:29:24Z,42.805,6.029,13.3004,4.60072,2470.53,2022-8-28T14:31:14Z
2022-08-28T12:32:27Z,42.805,6.029,13.3007,4.60067,2470.53,2022-8-28T14:34:17Z
2022-08-28T12:35:30Z,42.805,6.029,13.3007,4.60074,2470.52,2022-8-28T14:37:20Z
2022-08-28T12:38:33Z,42.805,6.029,13.3006,4.60086,2470.581,2022-8-28T14:40:24Z
2022-08-28T12:41:36Z,42.805,6.029,13.3006,4.60071,2470.507,2022-8-28T14:43:27Z
2022-08-28T12:44:39Z,42.805,6.029,13.3009,4.60069,2470.507,2022-8-28T14:46:30Z
2022-08-28T12:47:42Z,42.805,6.029,13.3009,4.60072,2470.507,2022-8-28T14:49:33Z
2022-08-28T12:50:46Z,42.805,6.029,13.3011,4.60066,2470.53,2022-8-28T14:52:36Z
2022-08-28T12:53:49Z,42.805,6.029,13.3006,4.60066,2470.507,2022-8-28T14:55:39Z
2022-08-28T12:56:52Z,42.805,6.029,13.3004,4.60060,2470.507,2022-8-28T14:58:42Z
2022-08-28T12:59:55Z,42.805,6.029,13.3009,4.60075,2470.52,2022-8-28T15:01:45Z
2022-08-28T13:02:58Z,42.805,6.029,13.3006,4.60065,2470.544,2022-8-28T15:04:49Z
2022-08-28T13:06:01Z,42.805,6.029,13.3004,4.60068,2470.544,2022-8-28T15:07:52Z
2022-08-28T13:09:04Z,42.805,6.029,13.3007,4.60064,2470.497,2022-8-28T15:10:55Z
2022-08-28T13:12:07Z,42.805,6.029,13.3009,4.60067,2470.53,2022-8-28T15:13:58Z
2022-08-28T13:15:11Z,42.805,6.029,13.3009,4.60073,2470.483,2022-8-28T15:17:01Z
2022-08-28T13:18:14Z,42.805,6.029,13.3012,4.60062,2470.507,2022-8-28T15:20:04Z
2022-08-28T13:21:17Z,42.805,6.029,13.3004,4.60065,2470.53,2022-8-28T15:23:07Z
2022-08-28T13:24:20Z,42.805,6.029,13.3005,4.60072,2470.507,2022-8-28T15:26:10Z
2022-08-28T13:27:23Z,42.805,6.029,13.3007,4.60075,2470.567,2022-8-28T15:29:14Z
2022-08-28T13:30:26Z,42.805,6.029,13.3007,4.60069,2470.497,2022-8-28T15:32:17Z
2022-08-28T13:33:29Z,42.805,6.029,13.3006,4.60092,2470.483,2022-8-28T15:35:20Z
2022-08-28T13:36:32Z,42.805,6.029,13.3008,4.60074,2470.52,2022-8-28T15:38:23Z
2022-08-28T13:39:35Z,42.805,6.029,13.3010,4.60081,2470.507,2022-8-28T15:41:26Z
2022-08-28T13:42:39Z,42.805,6.029,13.3008,4.60095,2470.507,2022-8-28T15:44:29Z
2022-08-28T13:45:42Z,42.805,6.029,13.3007,4.60062,2470.497,2022-8-28T15:47:32Z
2022-08-28T13:48:45Z,42.805,6.029,13.3006,4.60068,2470.52,2022-8-28T15:50:35Z
2022-08-28T13:51:48Z,42.805,6.029,13.3003,4.60069,2470.507,2022-8-28T15:53:39Z
2022-08-28T13:54:51Z,42.805,6.029,13.3006,4.60060,2470.497,2022-8-28T15:56:42Z
2022-08-28T13:57:54Z,42.805,6.029,13.3006,4.60069,2470.497,2022-8-28T15:59:45Z
2022-08-28T14:00:57Z,42.805,6.029,13.3009,4.60075,2470.483,2022-8-28T16:02:48Z
2022-08-28T14:04:01Z,42.805,6.029,13.3011,4.60072,2470.497,2022-8-28T16:05:51Z
2022-08-28T14:07:04Z,42.805,6.029,13.3009,4.60061,2470.52,2022-8-28T16:08:54Z
2022-08-28T14:10:07Z,42.805,6.029,13.3008,4.60064,2470.483,2022-8-28T16:11:57Z
2022-08-28T14:13:10Z,42.805,6.029,13.3006,4.60072,2470.483,2022-8-28T16:15:00Z
2022-08-28T14:16:13Z,42.805,6.029,13.3015,4.60068,2470.52,2022-8-28T16:18:04Z
2022-08-28T14:19:16Z,42.805,6.029,13.3011,4.60076,2470.507,2022-8-28T16:21:07Z
2022-08-28T14:22:19Z,42.805,6.029,13.3008,4.60064,2470.507,2022-8-28T16:24:10Z
2022-08-28T14:25:22Z,42.805,6.029,13.3011,4.60062,2470.483,2022-8-28T16:27:13Z
2022-08-28T14:28:26Z,42.805,6.029,13.3010,4.60069,2470.52,2022-8-28T16:30:16Z
2022-08-28T14:31:29Z,42.805,6.029,13.3003,4.60062,2470.52,2022-8-28T16:33:19Z
2022-08-28T14:34:32Z,42.805,6.029,13.3006,4.60064,2470.497,2022-8-28T16:36:22Z
2022-08-28T14:37:35Z,42.805,6.029,13.3004,4.60062,2470.507,2022-8-28T16:39:25Z
2022-08-28T14:40:38Z,42.805,6.029,13.3005,4.60058,2470.507,2022-8-28T16:42:29Z
2022-08-28T14:43:41Z,42.805,6.029,13.3006,4.60064,2470.497,2022-8-28T16:45:32Z
2022-08-28T14:46:44Z,42.805,6.029,13.3009,4.60063,2470.483,2022-8-28T16:48:35Z
2022-08-28T14:49:47Z,42.805,6.029,13.3010,4.60067,2470.483,2022-8-28T16:51:38Z
2022-08-28T14:52:51Z,42.805,6.029,13.3007,4.60063,2470.52,2022-8-28T16:54:41Z
2022-08-28T14:55:54Z,42.805,6.029,13.3011,4.60057,2470.507,2022-8-28T16:57:44Z
2022-08-28T14:58:57Z,42.805,6.029,13.3006,4.60056,2470.52,2022-8-28T17:00:47Z
2022-08-28T15:02:00Z,42.805,6.029,13.3005,4.60056,2470.474,2022-8-28T17:03:51Z
2022-08-28T15:05:03Z,42.805,6.029,13.3009,4.60053,2470.507,2022-8-28T17:06:54Z
2022-08-28T15:08:06Z,42.805,6.029,13.3005,4.60057,2470.507,2022-8-28T17:09:57Z
2022-08-28T15:11:09Z,42.805,6.029,13.3009,4.60056,2470.483,2022-8-28T17:13:00Z